Theta_e
302 303 304 306 307 307 308 309 310 310 311 312 309 307 305 303 302 303 307 309 301 296 298 300 301 299 300 299 294 299 295 293 292 290 288 289 290 291 290 292 286 285 283 284 286 284 280 293 288 281 285 287 289 289
302 302 302 304 305 306 307 308 309 309 310 311 310 307 305 304 302 302 301 308 305 296 297 302 302 304 304 304 301 298 292 289 290 287 291 289 289 291 290 286 293 285 286 283 283 284 292 290 286 290 291 288 290 292
301 301 301 302 304 305 306 307 308 309 309 310 310 307 306 304 303 301 303 307 301 296 298 301 303 309 310 308 309 296 294 294 293 296 290 290 286 293 287 289 288 292 288 285 284 290 287 290 292 292 292 291 294 296
300 300 301 301 302 303 304 306 307 308 309 310 309 307 305 304 302 302 302 305 301 297 290 300 308 306 311 311 310 306 304 301 296 294 290 290 288 295 291 291 288 289 287 286 287 291 290 292 291 291 291 291 292 295
300 300 300 300 301 301 303 305 306 307 308 310 308 306 304 304 302 302 304 304 303 297 291 295 302 308 311 311 309 308 305 299 293 292 291 290 294 294 296 293 290 288 285 285 285 289 288 288 293 293 291 290 290 292
300 300 300 300 300 301 302 303 305 306 308 310 307 305 304 303 302 301 299 304 304 301 293 290 304 305 309 310 308 306 305 300 294 295 295 297 299 296 290 290 290 293 295 294 291 294 293 293 294 294 291 291 292 291
301 299 299 300 300 300 301 302 305 306 307 308 306 304 303 303 301 296 296 298 304 303 293 291 297 306 308 309 307 308 306 300 297 300 301 301 298 296 293 287 289 294 295 295 296 295 291 293 292 295 294 293 293 292
300 299 299 299 299 300 302 303 305 306 307 306 304 303 302 302 300 297 302 302 304 299 297 290 294 301 310 304 302 312 305 301 305 302 304 301 298 297 290 295 294 295 296 295 295 295 294 296 297 296 295 294 291 290
299 300 300 299 299 301 301 303 305 305 306 304 303 302 300 297 295 300 307 305 304 299 293 294 292 296 309 304 306 307 307 298 304 299 301 298 295 292 295 296 294 295 295 294 296 296 296 297 298 298 297 296 293 293
299 300 300 300 300 301 301 302 304 305 304 302 299 293 290 297 307 306 299 295 293 294 294 291 297 295 304 303 301 303 306 297 292 301 305 295 295 300 300 299 297 296 297 297 295 294 296 297 298 298 299 299 298 296
300 300 300 300 300 300 301 302 304 304 301 296 293 291 302 307 302 301 295 293 292 290 293 294 295 295 304 299 298 305 301 298 291 296 296 294 293 297 299 297 298 298 297 297 298 298 301 299 299 299 300 301 301 301
299 300 300 300 300 299 300 301 303 300 299 298 298 303 301 297 296 293 291 295 293 292 298 296 298 300 303 308 301 302 298 297 289 298 295 291 295 298 296 296 298 299 298 297 301 302 301 300 300 299 300 301 301 302
299 300 301 300 300 299 300 301 302 302 300 299 296 294 293 294 287 287 286 291 292 297 300 300 298 303 304 305 300 300 294 293 301 294 291 294 297 296 296 297 297 298 298 300 302 302 301 300 300 299 299 301 301 302
299 300 300 300 300 300 300 301 302 301 297 290 288 285 290 289 292 292 293 296 300 301 302 301 300 300 302 298 300 295 300 301 290 289 291 296 297 296 297 297 298 297 301 302 302 301 300 300 300 300 300 300 300 300
300 300 300 300 300 300 300 301 301 299 294 289 292 286 290 296 297 298 300 301 302 304 302 301 301 301 299 297 300 299 294 291 294 294 297 298 298 299 298 298 299 299 302 302 303 301 300 300 300 300 301 301 301 300
300 299 300 300 300 300 301 300 300 296 292 292 293 291 296 293 295 298 299 300 303 303 303 302 298 296 296 299 295 294 293 292 295 300 300 300 299 298 299 300 301 301 303 303 303 301 301 301 300 300 301 301 300 300
299 295 299 300 299 300 301 292 290 287 290 290 291 296 295 296 297 299 301 301 305 301 297 300 294 294 302 296 294 302 298 300 302 299 302 302 301 299 300 303 302 301 302 303 302 301 301 302 302 300 299 300 301 301
295 298 300 297 296 296 295 295 292 291 288 292 291 294 298 300 299 301 302 304 303 302 300 297 304 296 295 293 298 303 303 304 303 301 303 303 303 301 301 300 300 301 302 302 302 302 301 300 299 299 300 300 300 300
297 297 298 297 297 296 292 292 294 289 291 294 296 297 297 299 302 304 303 304 305 304 301 301 297 296 298 306 305 306 306 303 302 302 304 306 305 301 300 301 301 301 301 302 302 302 302 303 302 301 301 300 298 297
298 297 297 298 299 294 290 292 297 292 290 293 295 294 297 297 300 302 302 302 302 300 298 297 298 303 306 310 309 308 309 306 304 300 300 302 304 303 301 300 300 302 301 302 302 298 303 302 302 302 302 302 301 299
295 297 297 298 295 295 294 292 291 294 296 293 296 297 297 299 298 299 299 303 300 299 297 301 307 309 311 311 311 312 310 308 304 303 301 301 303 302 302 302 303 302 301 300 300 300 299 301 301 302 301 301 302 302
295 298 295 296 293 294 294 297 294 296 296 296 296 297 295 294 295 297 301 300 299 301 301 306 307 310 308 307 308 310 311 311 309 307 301 303 303 303 303 302 301 301 301 301 300 299 300 301 302 302 301 302 300 302
298 296 295 294 289 290 289 298 292 294 291 293 295 292 294 296 298 302 297 299 299 305 305 304 306 310 307 307 309 310 311 310 309 309 307 309 308 310 308 305 303 302 302 304 305 303 303 297 299 301 302 301 302 302
296 292 289 289 289 288 294 292 295 293 294 293 293 291 293 296 300 297 293 297 301 304 304 306 309 308 307 306 304 306 308 309 310 310 310 309 308 309 309 304 301 301 304 306 306 306 305 303 298 301 302 301 301 302
288 288 290 286 291 288 288 289 290 292 290 292 291 293 295 300 294 293 293 297 301 301 303 305 307 306 304 304 304 304 308 308 306 306 307 307 307 307 307 308 308 308 308 307 305 305 305 305 303 303 303 302 302 302
284 288 287 288 289 289 290 288 289 290 292 292 293 299 301 296 292 291 297 301 302 306 306 306 305 302 302 304 302 303 305 307 307 305 306 306 306 305 304 303 304 307 310 309 309 307 305 305 304 303 303 301 291 301
284 287 292 297 296 295 294 295 295 293 290 290 295 295 295 290 291 296 306 310 308 310 309 308 306 305 304 303 305 306 309 308 306 306 308 308 309 308 309 307 306 309 312 312 311 309 307 306 304 303 303 303 302 301
290 291 288 293 294 297 292 292 292 290 294 300 298 292 291 291 293 303 308 311 311 308 306 307 307 307 306 305 307 307 307 308 309 309 308 308 310 310 310 309 310 296 311 311 310 311 309 307 305 304 305 305 304 304
289 294 293 291 293 295 295 293 295 301 304 303 297 296 295 302 303 308 309 310 311 309 307 306 305 307 307 307 307 307 308 307 305 302 301 301 302 305 308 310 309 309 310 310 288 297 307 307 307 308 308 308 308 308
291 296 293 292 291 292 298 302 303 305 305 304 303 302 300 299 304 311 309 309 307 306 306 305 306 305 305 305 305 306 308 308 307 305 302 302 303 306 307 307 309 310 311 310 308 308 290 302 300 308 306 306 306 306
298 295 292 294 294 300 302 305 304 302 301 300 302 296 294 298 302 306 306 306 306 306 304 303 303 304 304 303 304 303 302 307 308 309 309 308 309 309 310 310 310 309 308 307 307 305 305 305 305 304 303 303 303 302
294 292 292 290 295 302 305 302 301 296 294 294 293 294 295 298 296 303 309 307 304 302 296 302 303 303 305 305 306 307 297 307 305 305 306 306 307 308 308 308 309 309 309 307 307 308 307 306 306 305 304 303 303 303
294 295 295 295 297 295 301 299 297 293 292 293 292 292 294 295 293 306 313 309 306 303 303 305 306 307 307 306 306 305 301 304 293 285 286 286 285 291 302 307 307 307 305 305 304 305 305 304 305 304 304 304 304 304
Wind_Speed
17 17 18 18 18 18 19 19 19 19 17 14 17 16 13 11 9 9 3 5 6 6 15 17 15 14 10 8 3 9 8 4 4 5 4 5 5 6 5 11 5 5 8 5 7 6 6 24 9 10 10 19 21 22
17 17 18 18 18 19 19 19 19 18 17 15 18 18 16 13 10 8 7 7 5 6 10 18 22 22 22 16 10 2 2 1 2 3 3 3 4 5 10 4 6 3 1 5 4 6 15 15 13 12 14 16 15 23
18 19 19 19 18 19 19 20 20 19 17 16 18 18 16 13 12 11 8 2 2 5 11 9 7 10 12 14 11 4 3 4 3 1 3 3 5 3 5 6 5 3 2 4 7 3 13 12 15 14 16 16 17 17
18 19 20 20 19 19 20 20 21 20 19 16 18 17 15 13 11 11 9 4 2 5 6 4 6 7 10 11 13 15 5 4 1 2 4 3 4 2 3 5 3 3 8 9 6 5 13 7 17 17 14 15 18 19
15 19 20 20 21 21 20 20 21 21 19 17 18 17 14 11 11 9 8 7 6 5 6 10 21 16 12 16 13 12 11 8 2 3 3 3 3 5 3 3 1 4 5 5 5 13 8 11 17 18 17 16 15 16
15 17 19 20 20 21 19 21 21 22 20 11 18 17 14 12 9 8 5 6 7 6 4 6 9 10 11 10 10 11 9 5 3 4 3 3 4 4 4 3 2 7 9 7 6 11 10 14 16 17 15 15 15 18
16 17 19 19 20 20 21 20 21 22 26 16 17 15 13 12 7 6 5 3 2 6 3 6 6 8 12 9 9 4 7 4 5 4 5 3 3 4 2 2 4 10 9 6 9 10 6 15 13 16 16 17 21 20
18 18 19 19 19 19 20 21 20 17 15 16 15 13 9 6 6 8 9 11 5 3 3 5 7 8 10 7 5 5 5 5 7 3 4 3 2 3 3 3 4 8 7 7 9 10 7 8 12 16 16 18 20 21
20 19 18 18 20 18 18 20 21 18 12 16 14 11 4 3 5 3 12 18 6 3 4 5 5 4 7 10 2 4 3 3 2 3 2 3 2 2 2 5 3 5 6 4 7 7 7 10 14 14 15 16 18 18
20 21 20 19 18 17 18 19 21 16 19 19 6 4 4 6 19 14 4 5 4 4 5 7 9 11 5 6 3 3 3 1 3 3 2 3 2 8 5 6 2 3 5 5 2 8 6 11 13 14 17 17 17 17
21 22 21 21 19 18 18 18 17 17 17 1 4 4 1 13 5 6 7 7 6 6 7 6 13 12 8 7 2 4 2 2 4 2 2 4 2 3 6 4 4 3 4 4 4 3 4 10 12 13 15 16 17 19
23 23 22 20 20 20 18 17 10 9 6 8 3 2 1 4 6 7 6 7 8 7 10 10 8 11 5 1 5 3 3 5 3 1 3 3 4 6 6 5 4 3 2 3 3 4 8 11 12 12 13 14 15 16
24 23 23 22 21 21 19 17 10 12 10 2 4 7 5 7 11 8 10 7 7 6 6 8 6 7 5 5 5 4 5 3 4 4 2 3 8 7 6 5 4 2 2 6 8 8 9 12 13 13 13 13 14 14
25 25 24 24 23 22 21 20 16 16 4 5 7 8 9 8 9 10 10 9 7 8 10 9 6 6 3 4 5 5 4 5 4 6 3 6 10 9 7 4 2 1 5 6 9 9 10 11 11 13 12 12 12 13
26 26 26 25 25 25 22 19 17 9 5 6 7 8 10 11 8 7 9 8 7 5 7 6 3 7 7 5 4 3 5 5 3 4 4 8 10 9 10 7 4 4 4 6 7 8 9 10 10 11 11 10 12 12
26 26 21 25 26 25 25 18 11 6 4 6 8 8 9 12 10 8 8 7 8 7 5 4 6 3 8 3 5 7 4 1 4 4 9 12 11 9 8 6 8 8 5 7 7 7 8 8 9 10 10 11 11 12
24 9 14 23 32 23 21 6 4 7 7 6 8 9 7 5 9 8 8 7 7 7 8 4 6 8 3 4 5 1 3 5 8 7 9 11 11 10 9 9 9 8 7 8 9 8 8 8 7 8 9 9 9 10
15 6 20 28 17 14 4 3 5 7 8 8 6 6 10 7 8 6 6 5 7 5 2 5 2 4 4 4 2 4 7 6 10 8 9 11 10 7 8 7 7 7 8 9 9 9 9 8 8 7 9 9 8 8
9 13 20 14 2 3 4 4 3 5 9 6 7 4 5 7 6 2 5 6 9 5 4 2 5 7 4 0 3 6 7 8 8 8 9 9 9 7 8 9 9 9 8 8 8 7 7 7 8 8 7 8 7 7
22 24 20 9 5 1 4 3 4 5 4 4 2 5 7 7 6 6 6 4 5 4 5 5 7 4 3 1 4 5 6 11 9 8 5 6 6 7 8 8 7 8 8 8 6 3 6 6 6 7 6 6 8 8
9 9 7 4 2 3 2 4 6 2 0 3 9 8 5 7 9 9 8 9 6 6 7 6 1 3 4 3 4 5 6 11 10 10 11 9 7 7 6 6 7 6 7 8 7 6 6 6 6 6 6 6 6 6
5 9 3 3 2 2 3 1 1 2 3 4 7 6 6 8 7 7 6 5 6 7 0 2 3 3 4 7 8 7 8 10 9 8 7 9 10 9 8 7 8 7 6 5 5 7 5 6 6 6 6 6 4 6
7 3 2 3 3 0 3 2 4 5 5 7 7 5 4 6 6 6 4 7 5 5 4 4 4 8 4 6 6 6 8 9 6 6 8 7 6 6 6 7 4 5 7 7 6 7 6 8 5 6 7 7 6 8
3 3 4 3 3 2 4 5 5 4 4 5 6 5 8 5 7 5 4 5 4 8 4 7 5 6 7 8 4 4 5 4 7 5 7 9 9 8 8 7 5 2 1 4 6 5 6 7 9 7 8 8 8 8
3 5 4 3 4 5 5 5 6 6 5 5 5 4 5 3 5 6 8 7 5 7 7 8 7 9 5 5 5 4 4 4 8 7 4 6 7 6 6 6 6 7 8 8 9 8 7 7 8 8 8 8 9 8
4 6 5 7 6 6 6 6 7 7 6 8 5 3 4 4 6 3 6 6 8 5 7 9 8 7 8 7 8 6 6 4 5 7 6 6 5 5 5 5 6 5 5 6 7 9 10 8 8 10 8 8 3 6
4 4 5 4 2 4 4 3 4 4 5 4 3 4 3 3 3 3 2 1 8 8 8 7 6 7 8 6 9 6 5 6 5 6 5 4 7 2 3 3 3 3 5 4 5 10 12 10 10 8 8 3 4 4
3 4 2 5 4 2 5 4 6 4 1 2 4 3 4 1 2 2 2 4 7 5 5 7 8 9 10 8 7 6 6 7 5 8 6 4 4 4 5 8 7 8 6 5 5 6 7 8 8 10 12 12 11 11
3 3 2 6 4 5 5 3 2 1 1 1 1 4 3 2 4 1 4 5 3 7 8 6 4 8 8 8 6 5 5 3 4 9 10 7 5 5 6 5 6 6 5 7 6 4 4 5 2 5 7 7 7 8
5 4 3 4 5 3 3 3 2 4 5 7 4 3 3 2 3 2 5 7 8 8 4 7 8 8 8 8 8 8 5 1 4 3 5 5 6 5 5 3 3 2 2 5 6 6 2 2 2 6 7 6 7 7
2 5 4 5 2 2 3 6 8 7 6 5 5 4 2 1 3 3 3 5 8 10 8 7 7 6 7 8 8 8 8 5 7 10 6 4 4 5 4 4 3 2 3 3 1 2 5 7 5 4 6 8 8 5
5 6 4 4 2 3 3 4 4 4 4 3 3 2 1 2 3 2 2 4 8 7 8 9 8 8 8 6 7 7 8 8 7 7 7 6 5 4 4 3 3 2 2 4 5 5 5 5 6 5 6 7 6 6
4 6 5 2 2 4 3 4 5 4 1 0 3 2 2 2 3 2 1 2 4 7 7 10 10 10 11 9 9 9 8 9 10 7 7 7 6 6 4 2 2 1 3 4 6 6 7 8 6 5 5 6 6 7
Wind_Direction
327 327 325 324 325 321 319 315 310 310 299 261 208 206 213 217 226 243 2 172 277 262 290 281 279 284 273 262 288 328 327 42 318 334 341 337 303 328 308 322 333 322 324 342 311 306 343 356 330 328 296 296 291 285
323 325 325 324 320 320 318 316 311 304 301 281 209 204 200 211 223 229 275 162 212 246 281 310 287 269 266 272 294 26 270 280 286 300 354 309 302 313 324 303 352 333 352 313 294 304 298 319 295 291 303 296 301 293
324 324 322 323 323 323 321 319 316 312 305 293 207 201 198 207 219 223 273 281 211 272 275 233 262 216 219 231 236 222 204 215 224 328 315 277 275 304 318 338 294 312 62 258 297 226 316 328 328 338 339 340 342 9
315 317 320 321 321 321 319 319 319 315 309 298 202 194 193 203 217 230 244 257 192 298 284 300 205 231 226 209 205 209 250 167 291 254 230 259 269 301 278 299 290 343 306 304 263 294 310 329 349 352 353 8 19 30
305 310 314 319 319 320 320 318 320 317 314 301 193 183 193 193 217 244 271 260 220 264 311 303 303 264 238 223 236 202 227 237 253 250 219 239 251 285 283 261 28 327 314 339 314 334 336 323 356 9 22 26 29 45
301 306 307 313 315 318 320 319 318 319 313 247 182 179 180 193 211 237 250 200 199 197 277 290 358 265 222 205 211 213 215 194 222 254 223 223 238 271 306 318 176 329 320 356 329 341 355 353 17 34 43 40 48 55
294 303 305 309 313 316 319 318 313 315 327 186 174 177 180 202 194 226 350 338 152 146 252 278 270 195 221 238 232 183 150 177 220 231 233 193 210 225 275 289 312 332 337 19 359 1 355 8 27 40 49 55 57 61
290 297 302 306 309 311 312 312 314 308 307 169 166 159 178 171 261 270 242 172 185 215 243 274 274 266 179 251 183 181 177 207 218 261 255 270 183 216 245 312 3 340 338 37 43 41 30 352 71 51 50 54 58 64
286 287 290 296 304 304 307 309 311 305 195 154 142 145 121 214 218 223 119 140 182 282 271 227 242 285 169 240 138 196 208 229 296 250 244 294 193 231 3 342 26 3 7 51 70 67 47 48 84 85 78 63 64 63
283 287 288 290 294 300 304 306 310 313 148 138 129 188 210 208 114 121 130 155 202 220 233 255 247 258 291 272 187 248 168 188 252 233 229 235 214 89 42 69 51 23 9 11 60 76 74 67 69 73 80 97 96 90
281 282 283 288 290 294 296 301 312 148 132 133 203 226 144 125 182 213 207 199 178 225 213 232 230 239 234 257 258 256 167 152 260 131 243 229 165 81 90 111 82 70 47 57 76 144 238 64 70 73 79 79 89 101
279 279 276 279 283 285 284 288 286 163 178 182 193 261 116 204 222 218 205 200 202 239 181 216 193 210 243 155 242 197 229 183 250 206 263 240 90 73 135 115 95 83 98 94 150 152 85 85 83 80 81 85 87 89
278 276 273 273 273 275 271 261 284 200 124 174 230 200 198 187 224 216 194 202 206 205 194 189 190 209 193 214 242 214 233 221 154 207 242 70 110 119 118 100 88 76 178 214 184 103 91 89 89 91 91 90 94 98
275 272 270 268 266 261 262 244 282 178 155 219 197 219 213 191 219 208 221 208 210 205 173 198 165 224 176 185 220 243 194 162 208 207 187 127 134 144 146 163 153 199 241 133 116 117 108 93 91 92 92 98 98 97
271 269 270 266 261 258 254 232 241 175 182 233 218 216 216 233 234 241 228 230 169 225 171 194 210 222 218 235 221 242 209 225 259 114 137 127 126 137 148 183 170 195 204 139 121 110 111 105 100 96 95 98 99 100
274 275 269 266 256 246 226 253 200 173 228 243 233 235 229 206 220 213 215 204 183 209 181 206 239 241 229 218 234 227 251 72 99 115 130 133 136 142 155 174 177 192 172 132 122 117 111 112 104 106 110 110 110 110
275 255 260 259 262 225 200 126 144 179 206 226 224 231 282 269 232 198 198 194 190 192 193 195 221 214 243 234 227 180 353 94 112 122 130 129 143 157 197 203 156 141 152 135 131 132 112 106 117 119 111 109 115 116
272 264 122 109 98 98 73 141 170 188 212 227 246 224 216 246 231 193 182 144 216 210 240 234 283 242 239 281 97 110 104 112 119 130 128 129 146 164 133 142 142 143 141 144 142 129 136 137 134 123 124 116 112 119
180 149 143 127 134 112 122 170 237 220 218 204 211 269 220 218 264 231 171 179 203 235 269 259 240 253 212 74 117 129 133 135 130 122 122 130 133 141 135 148 151 149 152 151 146 159 144 175 126 149 137 156 130 137
155 156 155 175 344 128 132 156 187 246 207 200 174 245 224 222 205 232 184 180 201 214 221 227 254 33 347 73 94 123 135 130 135 130 140 139 138 147 151 150 149 150 155 154 170 145 148 149 155 153 168 139 143 138
111 150 119 37 297 259 249 161 200 241 294 205 213 219 195 192 187 193 199 202 196 215 239 254 87 88 120 144 104 122 143 143 154 158 172 163 175 171 158 158 153 172 163 174 160 152 183 159 151 150 151 167 138 145
98 142 127 215 272 274 261 145 55 252 233 251 174 212 185 193 184 192 197 201 213 229 327 253 211 168 164 145 149 141 125 131 150 153 182 171 178 184 172 177 174 174 172 169 161 154 188 154 156 151 176 154 155 155
92 94 196 219 274 325 278 193 221 211 222 185 181 201 203 188 162 168 201 198 223 224 166 264 179 147 169 136 108 116 135 139 150 164 168 189 165 168 189 168 202 197 181 170 166 160 164 130 148 172 161 161 179 132
155 206 220 215 226 256 184 216 217 225 193 185 185 199 180 167 166 188 228 232 237 165 180 166 134 163 185 157 148 152 169 160 139 155 149 150 150 163 175 161 175 216 262 147 160 176 152 174 145 188 172 180 185 175
199 207 204 227 222 235 218 196 204 209 185 190 205 195 154 113 182 203 196 207 214 179 190 156 164 196 150 137 131 157 178 173 134 145 159 132 130 146 149 155 166 177 186 193 203 191 189 181 177 192 180 186 186 190
233 199 204 206 180 207 217 184 192 203 180 180 193 107 153 184 214 204 179 171 163 157 147 175 188 127 133 172 129 158 129 115 126 140 151 168 162 156 162 169 171 186 206 170 197 208 187 194 195 198 205 179 89 225
250 181 191 221 262 235 233 255 204 187 184 215 114 169 182 191 173 101 99 101 122 154 179 137 142 138 141 142 103 115 112 106 126 139 134 149 115 77 67 58 101 134 151 184 184 187 205 187 193 208 220 204 222 204
323 297 261 174 191 174 294 217 194 215 197 71 171 130 151 179 66 34 103 147 136 134 145 140 160 151 129 145 129 136 118 109 120 111 113 147 120 107 96 94 93 28 134 141 153 150 159 172 180 191 203 211 214 212
260 225 231 224 201 221 232 241 95 88 306 257 187 99 122 8 14 288 125 113 111 134 111 89 135 129 127 138 141 110 109 120 134 142 147 135 145 136 142 130 146 151 147 140 73 37 162 156 231 174 203 203 207 198
201 175 254 232 236 212 46 50 45 61 62 50 82 105 86 18 336 292 117 112 108 103 162 162 134 140 144 140 123 109 85 46 28 154 143 153 138 108 89 117 160 131 146 165 180 167 83 209 170 222 222 205 180 189
195 176 239 252 333 81 80 87 72 58 37 36 64 80 63 339 51 33 141 180 185 196 135 115 114 124 134 152 151 144 119 88 56 74 88 92 85 76 72 85 82 37 31 84 330 241 183 218 242 231 241 237 242 226
180 222 254 238 181 79 134 103 78 71 18 14 82 58 25 118 68 77 260 198 111 100 104 102 99 98 104 105 85 84 79 101 98 82 74 75 93 113 130 116 97 66 30 360 317 270 263 275 269 242 245 242 251 270
201 225 232 280 210 185 155 158 111 76 8 45 86 46 24 54 72 76 164 93 115 115 118 124 129 115 114 114 111 115 101 89 82 67 66 49 33 5 321 348 94 170 221 220 228 244 250 254 254 279 281 292 303 304